[[[{"header":{"parameterUnit":"kt","parameterCategory":2,"dx":1,"dy":1,"la1":30.253999710083008,"la2":30.299108505249023,"lo1":-89.0895004272461,"lo2":-89.04439544677734,"nx":28,"ny":28,"refTime":"2022-10-03T21:00:00:Z","depth":"0","parameterNumber":2,"parameterNumberName":"U-component_of_CURRENTS"},"data":[0.3039,0.2967,0.2954,0.2866,0.2875,0.2864,0.2928,0.3122,0.3419,0.3933,0.4394,0.4883,0.5611,0.6214,0.628,0.6157,0.5543,0.541,0.5151,0.5708,0.5727,0.5744,0.5545,0.5549,0.5547,0.4292,0.4282,0.4273,0.3097,0.3098,0.3083,0.3116,0.3078,0.3192,0.3317,0.341,0.3674,0.4105,0.4485,0.5218,0.5722,0.6214,0.6679,0.6503,0.623,0.6288,0.585,0.568,0.6488,0.6322,0.6491,0.6491,0.6491,0.6492,0.6492,0.6492,0.326,0.3229,0.3343,0.3343,0.3378,0.3425,0.3461,0.371,0.3921,0.4308,0.4626,0.5074,0.576,0.6489,0.6618,0.6817,0.6557,0.6678,0.6489,0.6245,0.5882,0.6676,0.7003,0.7003,0.7003,0.7004,0.7004,0,0.343,0.3513,0.3568,0.3616,0.3665,0.3726,0.389,0.3941,0.4332,0.4521,0.4859,0.5131,0.5739,0.6134,0.6634,0.6785,0.6511,0.6873,0.6666,0.6158,0.5832,0.5616,0.6352,0.6706,0.6705,0.6704,0.6703,0.6703,0.3678,0.3694,0.3895,0.3905,0.397,0.4103,0.4164,0.4471,0.4567,0.4959,0.4993,0.5395,0.5624,0.6173,0.642,0.6769,0.6428,0.6841,0.6577,0.6361,0.6161,0.5868,0.5661,0.6689,0.6691,0.6692,0.6693,0,0.3842,0.3963,0.402,0.4249,0.4306,0.4372,0.4547,0.4635,0.4904,0.501,0.5086,0.5398,0.5714,0.593,0.6225,0.6252,0.6306,0.6511,0.6447,0.6459,0.6295,0.6092,0.6087,0.5873,0.6751,0.6754,0.6757,0,0.4101,0.412,0.4337,0.4331,0.4412,0.46,0.4683,0.483,0.5022,0.5098,0.5304,0.5373,0.5571,0.5755,0.5841,0.6056,0.611,0.6039,0.6071,0.5987,0.598,0.5827,0.5618,0.6042,0.6038,0.6035,0.6032,0,0.4222,0.4357,0.4373,0.4405,0.4566,0.4607,0.4717,0.4864,0.4915,0.5166,0.5224,0.5392,0.5461,0.5599,0.5678,0.5578,0.5958,0.5824,0.5936,0.5941,0.5944,0.5937,0.6034,0.6027,0.6026,0.6025,0.6023,0,0.4351,0.4416,0.4438,0.4581,0.4607,0.4648,0.4769,0.4844,0.4986,0.5046,0.5116,0.5151,0.5249,0.5154,0.5375,0.5264,0.5358,0.5406,0.5423,0.5408,0.5334,0.5682,0.5912,0.5706,0.5606,0.5601,0.5597,0,0.4401,0.4452,0.4505,0.4557,0.4586,0.464,0.4701,0.4757,0.481,0.491,0.49,0.4968,0.487,0.4906,0.4959,0.503,0.5153,0.4944,0.5249,0.526,0.5284,0.5483,0.5431,0.5831,0.5535,0.5542,0.5546,0,0.442,0.4517,0.4518,0.4563,0.4611,0.4634,0.4667,0.4713,0.4792,0.4772,0.4861,0.4794,0.4821,0.4797,0.4758,0.4822,0.5055,0.4814,0.4817,0.5038,0.5395,0.5399,0.5442,0.5029,0.5034,0.5039,0.5497,0,0.4507,0.4527,0.4536,0.4597,0.4614,0.462,0.4664,0.4677,0.4687,0.4711,0.4732,0.4681,0.4676,0.464,0.4598,0.4691,0.4741,0.4666,0.4647,0.4728,0.4915,0.4954,0.4461,0.4458,0.4457,0.4455,0,0,0.4509,0.453,0.4564,0.4594,0.4605,0.4632,0.4645,0.4658,0.4643,0.4658,0.4635,0.4602,0.4538,0.4548,0.4554,0.4501,0.4606,0.45,0.4651,0.4673,0.4693,0.4877,0.4916,0.4452,0.4451,0.4451,0.445,0,0.4539,0.4552,0.4569,0.4588,0.4618,0.4625,0.4635,0.464,0.4642,0.4628,0.4603,0.4586,0.4507,0.4489,0.4465,0.4478,0.4528,0.4451,0.4524,0.4631,0.4655,0.4677,0.4863,0.49,0.4446,0.4446,0.4446,0,0.4565,0.4589,0.4591,0.4609,0.4618,0.4635,0.4628,0.463,0.4642,0.458,0.4569,0.4534,0.4472,0.4444,0.4423,0.4397,0.4482,0.4364,0.4371,0.4395,0.4506,0.4531,0.4554,0.4273,0.4273,0.4273,0,0,0.4592,0.4605,0.4625,0.4615,0.4628,0.4631,0.4626,0.4627,0.4607,0.4595,0.4555,0.4508,0.4475,0.4443,0.4398,0.4355,0.4421,0.4349,0.4357,0.4364,0.4392,0.4503,0.4526,0.4273,0.4273,0.4273,0,0,0.4594,0.4629,0.4642,0.4631,0.4639,0.463,0.4622,0.4623,0.4591,0.4591,0.4538,0.4522,0.4494,0.4434,0.4444,0.4388,0.4346,0.4343,0.4443,0.4452,0.4459,0.4511,0.4397,0,0,0,0,0,0.4647,0.4632,0.4645,0.4645,0.4636,0.4632,0.4627,0.4617,0.4622,0.4614,0.4581,0.4543,0.4432,0.4439,0.442,0.4432,0.4273,0.4273,0.4273,0.4391,0.4402,0.441,0,0,0,0,0,0,0.4648,0.4649,0.4645,0.464,0.4638,0.4631,0.4628,0.4623,0.4622,0.4621,0.4553,0.454,0.4497,0.4444,0.4428,0.4441,0.4402,0.4273,0.4273,0.4273,0.4395,0.4403,0.441,0,0,0,0,0,0.4648,0.4649,0.4642,0.4638,0.4637,0.4625,0.4628,0.4624,0.4618,0.4558,0.4547,0.4615,0.4498,0.4481,0.4434,0.4451,0.4412,0.4407,0.4273,0.4273,0.4273,0.4399,0,0,0,0,0,0,0.4648,0.4631,0.464,0.4639,0.4645,0.4624,0.4622,0.4625,0.4552,0.4544,0.4615,0.4615,0.4498,0.4485,0.4472,0.4458,0.4421,0.4415,0.4412,0.4273,0.4273,0.4273,0,0,0,0,0,0,0.463,0.4629,0.4639,0.4649,0.4648,0.4624,0.4622,0.4561,0.4549,0.4611,0.461,0.4615,0.4503,0.4487,0.4477,0.4383,0.4428,0.4422,0.4418,0.4416,0.4273,0.4273,0,0,0,0,0,0,0.4629,0.4628,0.4649,0.4648,0.4647,0.4622,0.4566,0.4544,0.46,0.4612,0.4601,0.4602,0.4505,0.4495,0.4481,0.4391,0.4385,0.4428,0.4424,0.4421,0.4419,0,0,0,0,0,0,0,0.4628,0.4643,0.4658,0.4647,0.4646,0.4625,0.4624,0.4622,0.46,0.4601,0.4601,0.4602,0.446,0.4453,0.4447,0.4398,0,0,0.4428,0.4425,0,0,0,0,0,0,0,0,0.4643,0.4643,0.4658,0.4658,0.4658,0.4625,0.4624,0.4623,0.46,0.4601,0.4601,0.4601,0.4458,0.4453,0.4448,0,0,0,0,0,0,0,0,0,0,0,0,0,0,0,0.4658,0.4658,0,0.4625,0.4624,0.4623,0.46,0.4601,0.4601,0.4601,0.4457,0.4452,0.4448,0,0,0,0,0,0,0,0,0,0,0,0,0,0,0,0,0,0,0,0,0,0,0,0,0,0,0,0,0,0,0,0,0,0,0,0,0,0,0,0,0,0,0,0,0,0,0,0,0,0,0,0,0,0,0,0,0,0,0,0,0,0,0,0,0,0,0,0,0]}],[{"header":{"parameterUnit":"kt","parameterCategory":2,"dx":1,"dy":1,"la1":30.253999710083008,"la2":30.299108505249023,"lo1":-89.0895004272461,"lo2":-89.04439544677734,"nx":28,"ny":28,"refTime":"2022-10-03T21:00:00:Z","depth":"0","parameterNumber":3,"parameterNumberName":"V-component_of_CURRENTS"},"data":[0.2278,0.2449,0.2505,0.2704,0.2813,0.2865,0.2887,0.296,0.3041,0.3152,0.321,0.3273,0.2671,0.0304,-0.1408,-0.1784,-0.2345,-0.2382,-0.2659,-0.2249,-0.221,-0.2172,-0.2267,-0.257,-0.2572,-0.3363,-0.3372,-0.3379,0.2199,0.2285,0.2513,0.2669,0.2791,0.2833,0.2921,0.2938,0.2979,0.3122,0.3136,0.2903,0.2072,0.1192,-0.0125,-0.0904,-0.1207,-0.1328,-0.1645,-0.1702,-0.0895,-0.0933,-0.0957,-0.0957,-0.0956,-0.0956,-0.0955,-0.0955,0.1996,0.2147,0.2266,0.2468,0.2608,0.2705,0.2796,0.2819,0.2906,0.2892,0.2899,0.2862,0.2233,0.1322,0.0753,-0.027,-0.0319,-0.0667,-0.0894,-0.1028,-0.1172,-0.0211,-0.0135,-0.0136,-0.0136,-0.0137,-0.0137,0,0.1722,0.1787,0.192,0.2144,0.2287,0.2421,0.25,0.2601,0.248,0.2553,0.2553,0.248,0.2037,0.1523,0.0865,0.0431,-0.0434,-0.0165,-0.0602,-0.1016,-0.1165,-0.1294,-0.0422,-0.0342,-0.0343,-0.0345,-0.0346,-0.0346,0.1341,0.1483,0.1648,0.1756,0.1801,0.1978,0.2055,0.1984,0.2026,0.2019,0.2064,0.1906,0.1762,0.1268,0.0639,0.0117,-0.0309,-0.0192,-0.0433,-0.0801,-0.1061,-0.123,-0.1321,-0.0366,-0.0364,-0.0362,-0.036,0,0.1143,0.1092,0.1306,0.1347,0.1377,0.1556,0.1601,0.1694,0.1634,0.1734,0.1712,0.1435,0.1205,0.0756,0.0365,0.0004,-0.0468,-0.0384,-0.0281,-0.0295,-0.0817,-0.1032,-0.1279,-0.1391,-0.0492,-0.049,-0.0488,0,0.079,0.0912,0.0881,0.0992,0.1195,0.106,0.1258,0.1197,0.1162,0.1239,0.0926,0.0954,0.0455,0.0293,-0.0068,-0.0313,-0.0306,-0.0633,-0.0655,-0.0627,-0.0618,-0.0968,-0.1189,-0.0741,-0.0742,-0.0742,-0.0743,0,0.0568,0.0559,0.0698,0.0704,0.0687,0.0748,0.0735,0.0671,0.0707,0.0626,0.0677,0.0408,0.0375,0.0079,-0.0239,-0.0338,-0.0431,-0.0591,-0.0682,-0.0677,-0.0642,-0.0633,-0.0973,-0.0743,-0.0744,-0.0744,-0.0744,0,0.0273,0.0306,0.0411,0.0461,0.0471,0.0484,0.0546,0.0496,0.0401,0.0354,0.023,0.009,-0.007,-0.0248,-0.0482,-0.0471,-0.0625,-0.0739,-0.074,-0.0681,-0.0733,-0.0609,-0.0583,-0.0985,-0.0748,-0.0748,-0.0748,0,0.0157,0.0206,0.0108,0.0185,0.0246,0.0127,0.0101,0.0038,-0.0022,-0.0015,-0.0215,-0.0231,-0.0466,-0.0456,-0.0592,-0.0684,-0.0758,-0.0774,-0.0804,-0.0803,-0.0715,-0.0706,-0.0662,-0.0594,-0.0753,-0.0753,-0.0752,0,0.008,0.001,0.0019,0.0076,-0.004,-0.0027,-0.0118,-0.0146,-0.0093,-0.0283,-0.0224,-0.046,-0.0505,-0.056,-0.0665,-0.0741,-0.0766,-0.079,-0.0793,-0.0725,-0.0785,-0.072,-0.071,-0.0823,-0.0823,-0.0823,-0.0756,0,-0.0004,-0.0004,-0.002,-0.0063,-0.0102,-0.0109,-0.0206,-0.025,-0.03,-0.035,-0.0423,-0.0565,-0.0616,-0.0701,-0.0763,-0.0812,-0.0794,-0.0848,-0.0831,-0.0851,-0.0821,-0.0818,-0.0864,-0.0865,-0.0865,-0.0866,0,0,-0.0013,-0.0018,-0.0103,-0.0124,-0.0125,-0.0219,-0.0208,-0.029,-0.0379,-0.0378,-0.0434,-0.0571,-0.0667,-0.0729,-0.077,-0.0828,-0.0819,-0.0798,-0.0857,-0.0856,-0.0855,-0.0826,-0.0823,-0.0866,-0.0866,-0.0867,-0.0867,0,-0.0027,-0.0074,-0.0088,-0.0129,-0.0187,-0.0229,-0.0237,-0.0313,-0.035,-0.042,-0.047,-0.0546,-0.0659,-0.072,-0.0764,-0.0827,-0.0824,-0.0864,-0.0823,-0.086,-0.0859,-0.0857,-0.0829,-0.0825,-0.0868,-0.0868,-0.0868,0,-0.0033,-0.0072,-0.0088,-0.0155,-0.0199,-0.023,-0.026,-0.031,-0.0336,-0.0397,-0.0461,-0.0529,-0.0611,-0.0694,-0.0734,-0.0733,-0.0814,-0.0824,-0.0824,-0.0783,-0.082,-0.0819,-0.0819,-0.0818,-0.0818,-0.0817,0,0,-0.0039,-0.0069,-0.013,-0.0161,-0.0185,-0.0242,-0.0272,-0.0301,-0.0362,-0.0388,-0.0448,-0.0519,-0.0589,-0.0629,-0.07,-0.0776,-0.0768,-0.0813,-0.0816,-0.0817,-0.0778,-0.0815,-0.0816,-0.0815,-0.0815,-0.0815,0,0,-0.0045,-0.0107,-0.0118,-0.0157,-0.0206,-0.028,-0.0307,-0.0328,-0.0391,-0.0394,-0.0452,-0.0471,-0.0549,-0.0595,-0.0558,-0.07,-0.0696,-0.0705,-0.0656,-0.066,-0.0663,-0.0594,-0.058,0,0,0,0,0,-0.0077,-0.0098,-0.0107,-0.012,-0.0207,-0.0272,-0.0287,-0.033,-0.033,-0.0352,-0.0408,-0.0427,-0.0595,-0.0564,-0.0583,-0.0615,-0.0786,-0.0791,-0.0796,-0.0752,-0.0756,-0.0759,0,0,0,0,0,0,-0.0082,-0.0097,-0.0107,-0.0176,-0.0197,-0.0272,-0.0282,-0.0296,-0.0328,-0.0332,-0.0416,-0.0429,-0.0474,-0.0557,-0.0574,-0.0602,-0.0574,-0.0788,-0.0792,-0.0796,-0.0754,-0.0756,-0.0759,0,0,0,0,0,-0.0087,-0.0099,-0.0223,-0.0178,-0.0195,-0.0258,-0.0281,-0.0293,-0.0323,-0.0397,-0.041,-0.035,-0.0473,-0.0491,-0.0567,-0.0594,-0.0563,-0.0569,-0.0791,-0.0794,-0.0797,-0.0755,0,0,0,0,0,0,-0.009,-0.012,-0.0228,-0.0236,-0.0165,-0.0255,-0.0269,-0.029,-0.0387,-0.04,-0.0333,-0.0335,-0.0473,-0.0487,-0.0501,-0.0588,-0.0553,-0.056,-0.0564,-0.0794,-0.0796,-0.0799,0,0,0,0,0,0,-0.0114,-0.0126,-0.0232,-0.0214,-0.022,-0.0252,-0.0264,-0.0331,-0.0388,-0.032,-0.0323,-0.0333,-0.0452,-0.0485,-0.0495,-0.0599,-0.0546,-0.0552,-0.0556,-0.0559,-0.0796,-0.0798,0,0,0,0,0,0,-0.0121,-0.0131,-0.0212,-0.0217,-0.0223,-0.0316,-0.0314,-0.0403,-0.0366,-0.0315,-0.0363,-0.0363,-0.0449,-0.0461,-0.0491,-0.059,-0.0597,-0.0546,-0.055,-0.0553,-0.0555,0,0,0,0,0,0,0,-0.0126,-0.0037,-0.0177,-0.022,-0.0225,-0.0307,-0.0309,-0.0312,-0.0365,-0.0365,-0.0364,-0.0363,-0.0512,-0.0518,-0.0525,-0.0583,0,0,-0.0546,-0.0549,0,0,0,0,0,0,0,0,-0.0034,-0.0036,-0.0177,-0.0179,-0.018,-0.0307,-0.0309,-0.0311,-0.0365,-0.0365,-0.0364,-0.0363,-0.0513,-0.0519,-0.0524,0,0,0,0,0,0,0,0,0,0,0,0,0,0,0,-0.0177,-0.0179,0,-0.0307,-0.0309,-0.0311,-0.0365,-0.0365,-0.0364,-0.0364,-0.0515,-0.0519,-0.0524,0,0,0,0,0,0,0,0,0,0,0,0,0,0,0,0,0,0,0,0,0,0,0,0,0,0,0,0,0,0,0,0,0,0,0,0,0,0,0,0,0,0,0,0,0,0,0,0,0,0,0,0,0,0,0,0,0,0,0,0,0,0,0,0,0,0,0,0,0]}]],[[{"header":{"parameterUnit":"kt","parameterCategory":2,"dx":1,"dy":1,"la1":30.253999710083008,"la2":30.299108505249023,"lo1":-89.0895004272461,"lo2":-89.04439544677734,"nx":28,"ny":28,"refTime":"2022-10-03T21:00:00:Z","depth":"2","parameterNumber":2,"parameterNumberName":"U-component_of_CURRENTS"},"data":[0.4461,0.4591,0.4588,0.4605,0.4665,0.4594,0.4538,0.4176,0.4039,0.3608,0.341,0.3526,0.3912,0.3358,0.3388,0.3249,0.3541,0.3134,0.4414,0.4349,0.442,0.4673,0.4249,0,0,0,0,0,0.4335,0.4454,0.4559,0.4695,0.4681,0.4749,0.4787,0.462,0.4476,0.4442,0.4391,0.4024,0.3934,0.4203,0.4069,0.408,0.4021,0.3953,0.3829,0.3918,0.3997,0.3655,0.3127,0.3122,0.3117,0.3113,0,0,0.4237,0.4309,0.4529,0.4611,0.4716,0.4753,0.4711,0.4789,0.479,0.4797,0.5103,0.5037,0.5206,0.5054,0.5032,0.5053,0.5387,0.5115,0.5142,0.518,0.4905,0.4771,0.4703,0.4709,0.4715,0.4719,0.4724,0,0.4247,0.4318,0.445,0.4595,0.4707,0.4744,0.49,0.4906,0.5164,0.5203,0.5459,0.5564,0.5858,0.573,0.5835,0.5808,0.586,0.5722,0.6508,0.5178,0.5054,0.5031,0.5043,0.508,0.5089,0.5095,0.51,0.5104,0.4311,0.4378,0.4566,0.4656,0.4731,0.4848,0.4938,0.5103,0.521,0.5505,0.5597,0.5886,0.5989,0.6286,0.6273,0.6383,0.6488,0.5928,0.5578,0.613,0.6113,0.6086,0.606,0.5196,0.5184,0.5175,0.5167,0,0.439,0.4487,0.4613,0.482,0.4872,0.4965,0.5083,0.5198,0.5374,0.5504,0.5575,0.5837,0.6091,0.6218,0.6471,0.6338,0.6449,0.6418,0.592,0.5855,0.6101,0.607,0.635,0.6345,0.6342,0.6338,0.6335,0,0.4476,0.456,0.4714,0.4755,0.4899,0.5052,0.5171,0.5309,0.5456,0.5551,0.5687,0.5774,0.5919,0.607,0.6118,0.6168,0.6347,0.6023,0.6032,0.5595,0.5538,0.6011,0.5978,0.6263,0.626,0.6257,0.6254,0,0.4427,0.4607,0.4703,0.4752,0.4929,0.5005,0.5116,0.525,0.5303,0.5535,0.5585,0.5739,0.5807,0.5912,0.5953,0.586,0.6201,0.6083,0.5957,0.5947,0.557,0.5512,0.625,0.625,0.6249,0.6248,0.6247,0,0.4422,0.4512,0.4615,0.4812,0.4844,0.4927,0.5099,0.5197,0.5323,0.5387,0.5444,0.5467,0.5568,0.545,0.5657,0.5555,0.5623,0.5666,0.5681,0.5451,0.5367,0.5261,0.5336,0.5844,0.5839,0.5834,0.583,0,0.4369,0.4469,0.4523,0.4669,0.4737,0.4787,0.4891,0.4973,0.5046,0.516,0.5155,0.5263,0.5148,0.5194,0.5237,0.5333,0.5431,0.5239,0.5519,0.5528,0.5336,0.548,0.4993,0.5289,0.5773,0.5779,0.5783,0,0.4306,0.4404,0.4421,0.4505,0.4596,0.4633,0.4723,0.4818,0.4904,0.4929,0.505,0.5072,0.5064,0.5083,0.5062,0.5122,0.5339,0.5111,0.5114,0.5297,0.5656,0.5432,0.545,0.5323,0.5328,0.5332,0.5738,0,0.4315,0.4375,0.4388,0.4483,0.4524,0.4571,0.4611,0.4657,0.4694,0.4728,0.4831,0.4842,0.4898,0.4886,0.4879,0.5,0.5038,0.4976,0.4942,0.5032,0.5195,0.5231,0.4772,0.477,0.4769,0.4767,0,0,0.4281,0.4328,0.4334,0.4382,0.4425,0.4427,0.4484,0.4509,0.4559,0.4601,0.4589,0.4684,0.4696,0.4789,0.4807,0.4801,0.4894,0.4794,0.4958,0.4979,0.4998,0.5159,0.5196,0.4764,0.4763,0.4763,0.4762,0,0.4283,0.4282,0.4324,0.435,0.4387,0.4398,0.4416,0.4417,0.445,0.4535,0.4538,0.4585,0.4653,0.4675,0.4696,0.4775,0.4822,0.4769,0.483,0.4939,0.4962,0.4983,0.5146,0.518,0.4758,0.4758,0.4759,0,0.4276,0.4299,0.4307,0.4325,0.4321,0.4355,0.4316,0.4334,0.4393,0.4379,0.4469,0.4488,0.4513,0.4587,0.4622,0.4588,0.4763,0.4653,0.4661,0.4678,0.4788,0.4814,0.4836,0.4554,0.4554,0.4554,0,0,0.4294,0.4328,0.4317,0.4316,0.4316,0.4309,0.4315,0.4325,0.4348,0.4367,0.4401,0.4433,0.4487,0.4518,0.4559,0.4614,0.4672,0.4633,0.4642,0.465,0.4672,0.4783,0.4807,0.4553,0.4553,0.4553,0,0,0.4281,0.4291,0.4301,0.4285,0.4305,0.4273,0.4284,0.4288,0.4336,0.4348,0.4367,0.4384,0.4481,0.4467,0.4455,0.4534,0.4486,0.4491,0.4562,0.4574,0.4583,0.4604,0.4426,0,0,0,0,0,0.4299,0.4291,0.4301,0.4296,0.4264,0.4268,0.4267,0.4271,0.4262,0.4292,0.4336,0.4327,0.4459,0.4449,0.446,0.4499,0.4541,0.4543,0.4545,0.4651,0.4663,0.4673,0,0,0,0,0,0,0.4297,0.4288,0.4301,0.4263,0.4257,0.4266,0.4239,0.4239,0.4261,0.4265,0.4315,0.4327,0.4338,0.4443,0.4453,0.449,0.4423,0.4542,0.4544,0.4545,0.4655,0.4665,0.4674,0,0,0,0,0,0.4295,0.4288,0.4236,0.4263,0.4258,0.426,0.424,0.424,0.4264,0.4288,0.4299,0.4274,0.4336,0.435,0.4449,0.4485,0.4415,0.4419,0.4543,0.4544,0.4546,0.466,0,0,0,0,0,0,0.4294,0.4286,0.4236,0.4235,0.4276,0.4262,0.4259,0.4241,0.4288,0.4296,0.4246,0.4248,0.4335,0.4346,0.4356,0.4484,0.4409,0.4413,0.4416,0.4544,0.4545,0.4546,0,0,0,0,0,0,0.429,0.4285,0.4235,0.4251,0.4252,0.4265,0.4262,0.4299,0.4292,0.4245,0.4246,0.4247,0.4353,0.4343,0.4351,0.4406,0.4405,0.4409,0.4411,0.4413,0.4545,0.4546,0,0,0,0,0,0,0.4289,0.4284,0.4251,0.4251,0.4252,0.4241,0.4302,0.429,0.4243,0.4245,0.4246,0.4248,0.4352,0.4358,0.4347,0.4398,0.4404,0.4405,0.4407,0.4409,0.4411,0,0,0,0,0,0,0,0.4287,0.4312,0.4244,0.4252,0.4253,0.4227,0.4226,0.4226,0.4243,0.4245,0.4246,0.4247,0.4383,0.4387,0.4391,0.4391,0,0,0.4404,0.4406,0,0,0,0,0,0,0,0,0.4314,0.4313,0.4244,0.4244,0.4244,0.4227,0.4226,0.4226,0.4243,0.4245,0.4246,0.4247,0.4384,0.4387,0.4391,0,0,0,0,0,0,0,0,0,0,0,0,0,0,0,0.4244,0.4244,0,0.4227,0.4226,0.4226,0.4244,0.4244,0.4245,0.4246,0.4385,0.4388,0.4391,0,0,0,0,0,0,0,0,0,0,0,0,0,0,0,0,0,0,0,0,0,0,0,0,0,0,0,0,0,0,0,0,0,0,0,0,0,0,0,0,0,0,0,0,0,0,0,0,0,0,0,0,0,0,0,0,0,0,0,0,0,0,0,0,0,0,0,0,0]}],[{"header":{"parameterUnit":"kt","parameterCategory":2,"dx":1,"dy":1,"la1":30.253999710083008,"la2":30.299108505249023,"lo1":-89.0895004272461,"lo2":-89.04439544677734,"nx":28,"ny":28,"refTime":"2022-10-03T21:00:00:Z","depth":"2","parameterNumber":3,"parameterNumberName":"V-component_of_CURRENTS"},"data":[0.053,0.0331,0.0244,0.0107,0.015,0.0235,0.0347,0.0723,0.0973,0.1293,0.1449,0.1468,0.0842,0.042,-0.0168,-0.0551,-0.0636,-0.0624,-0.0664,-0.046,-0.0452,-0.0861,-0.0861,0,0,0,0,0,0.0658,0.0594,0.0507,0.0437,0.0395,0.0508,0.0562,0.0743,0.0962,0.1145,0.1279,0.0989,0.0611,0.0166,-0.0474,-0.0911,-0.0911,-0.1039,-0.0927,-0.0925,-0.0923,-0.0927,-0.0946,-0.0947,-0.0948,-0.0949,0,0,0.082,0.0799,0.0725,0.0701,0.0699,0.0683,0.0796,0.0839,0.0961,0.1146,0.101,0.1054,0.0665,0.009,-0.0387,-0.0815,-0.0868,-0.1009,-0.1003,-0.0999,-0.1011,-0.0982,-0.105,-0.1051,-0.1052,-0.1053,-0.1053,0,0.0829,0.0873,0.0872,0.0864,0.0883,0.0942,0.097,0.1032,0.1044,0.116,0.1071,0.0985,0.0575,0.017,-0.0281,-0.0604,-0.0748,-0.085,-0.0846,-0.0859,-0.082,-0.0851,-0.085,-0.086,-0.086,-0.086,-0.086,-0.086,0.072,0.0809,0.0901,0.0884,0.0924,0.1066,0.1048,0.1146,0.1093,0.1145,0.104,0.0919,0.067,0.0231,-0.0213,-0.0628,-0.0736,-0.0826,-0.097,-0.0974,-0.1008,-0.1003,-0.0998,-0.086,-0.086,-0.086,-0.086,0,0.0639,0.0641,0.075,0.0807,0.0855,0.0958,0.1029,0.1019,0.11,0.1072,0.1062,0.0851,0.0573,0.0269,-0.0089,-0.0366,-0.0672,-0.0808,-0.0673,-0.0703,-0.0985,-0.0984,-0.1033,-0.1036,-0.1039,-0.1041,-0.1042,0,0.0471,0.0551,0.0569,0.0636,0.0756,0.0718,0.0846,0.0816,0.0804,0.0778,0.0641,0.0555,0.0251,0.0064,-0.0244,-0.0567,-0.0506,-0.0889,-0.093,-0.0848,-0.0848,-0.0869,-0.087,-0.0856,-0.0856,-0.0856,-0.0856,0,0.0363,0.037,0.0447,0.0452,0.0453,0.0506,0.051,0.0468,0.0466,0.0441,0.0459,0.0245,0.0195,-0.0058,-0.037,-0.0423,-0.0597,-0.069,-0.0911,-0.0915,-0.0868,-0.0869,-0.0856,-0.0856,-0.0855,-0.0855,-0.0855,0,0.0203,0.0221,0.0288,0.0316,0.0326,0.0355,0.0378,0.0345,0.0269,0.0228,0.0117,-0.0001,-0.0155,-0.0294,-0.0536,-0.0512,-0.0668,-0.0785,-0.0788,-0.0871,-0.0929,-0.0824,-0.0837,-0.0829,-0.0829,-0.0829,-0.0829,0,0.012,0.0161,0.01,0.0153,0.019,0.0104,0.0084,0.0029,-0.0027,-0.0031,-0.0222,-0.0254,-0.0453,-0.0458,-0.0584,-0.0698,-0.0777,-0.0767,-0.0852,-0.0853,-0.0886,-0.0917,-0.0833,-0.0835,-0.0827,-0.0827,-0.0827,0,0.0064,0.003,0.0033,0.0063,-0.0016,0.0001,-0.0064,-0.0107,-0.0075,-0.0225,-0.021,-0.0438,-0.0482,-0.0553,-0.0667,-0.0741,-0.0775,-0.0792,-0.0795,-0.0754,-0.0832,-0.0904,-0.0912,-0.0824,-0.0825,-0.0825,-0.0826,0,-0.0015,-0.0015,-0.0008,-0.0038,-0.0059,-0.0057,-0.0129,-0.016,-0.0215,-0.0266,-0.0362,-0.0499,-0.0582,-0.0665,-0.0739,-0.0807,-0.0806,-0.0851,-0.0839,-0.0857,-0.0858,-0.0859,-0.0861,-0.0862,-0.0863,-0.0864,0,0,-0.0058,-0.0059,-0.0108,-0.0107,-0.0115,-0.0183,-0.0171,-0.0226,-0.0298,-0.0317,-0.0356,-0.053,-0.0629,-0.0729,-0.0765,-0.0822,-0.0829,-0.08,-0.0863,-0.0862,-0.0862,-0.0863,-0.0863,-0.0865,-0.0865,-0.0866,-0.0866,0,-0.0086,-0.0116,-0.0108,-0.0131,-0.0165,-0.02,-0.0201,-0.0249,-0.0285,-0.0348,-0.0423,-0.0508,-0.0627,-0.0708,-0.0767,-0.0823,-0.0842,-0.0866,-0.0823,-0.0868,-0.0867,-0.0866,-0.0866,-0.0865,-0.0868,-0.0868,-0.0867,0,-0.0126,-0.0153,-0.0156,-0.0193,-0.0218,-0.0228,-0.0264,-0.0277,-0.0302,-0.0378,-0.0432,-0.0512,-0.0619,-0.0703,-0.0745,-0.0746,-0.0838,-0.0837,-0.0836,-0.0805,-0.0851,-0.085,-0.0849,-0.0847,-0.0847,-0.0846,0,0,-0.0147,-0.0157,-0.0198,-0.0201,-0.021,-0.0255,-0.0269,-0.0292,-0.0343,-0.0365,-0.0428,-0.0511,-0.0598,-0.0641,-0.0717,-0.0787,-0.0797,-0.0829,-0.083,-0.083,-0.08,-0.0846,-0.0846,-0.0844,-0.0844,-0.0844,0,0,-0.0155,-0.0195,-0.0218,-0.0219,-0.025,-0.0294,-0.0296,-0.0322,-0.0377,-0.0382,-0.0458,-0.0479,-0.0561,-0.0611,-0.0573,-0.0721,-0.0725,-0.0734,-0.067,-0.0672,-0.0673,-0.0614,-0.0609,0,0,0,0,0,-0.0201,-0.019,-0.021,-0.0215,-0.0261,-0.0287,-0.0295,-0.0327,-0.0339,-0.0344,-0.0411,-0.044,-0.0616,-0.0583,-0.0603,-0.0635,-0.0815,-0.082,-0.0825,-0.076,-0.0762,-0.0763,0,0,0,0,0,0,-0.0203,-0.021,-0.021,-0.0251,-0.0262,-0.0288,-0.0313,-0.0322,-0.0339,-0.0343,-0.0427,-0.0443,-0.0494,-0.0577,-0.0594,-0.0623,-0.0603,-0.0817,-0.0821,-0.0825,-0.0761,-0.0762,-0.0763,0,0,0,0,0,-0.0205,-0.021,-0.0272,-0.0252,-0.0262,-0.0303,-0.0313,-0.0321,-0.0338,-0.0415,-0.043,-0.0359,-0.0492,-0.0511,-0.0587,-0.0614,-0.0592,-0.0598,-0.0819,-0.0823,-0.0826,-0.0761,0,0,0,0,0,0,-0.0207,-0.0227,-0.0275,-0.0279,-0.025,-0.0303,-0.0311,-0.032,-0.0411,-0.0424,-0.0351,-0.0353,-0.0492,-0.0507,-0.0521,-0.0608,-0.0582,-0.0589,-0.0593,-0.0822,-0.0825,-0.0827,0,0,0,0,0,0,-0.0224,-0.023,-0.0277,-0.0272,-0.0277,-0.0302,-0.031,-0.0373,-0.0414,-0.0344,-0.0347,-0.0351,-0.0484,-0.0503,-0.0514,-0.0612,-0.0575,-0.0581,-0.0585,-0.0588,-0.0824,-0.0826,0,0,0,0,0,0,-0.0228,-0.0233,-0.0272,-0.0275,-0.0279,-0.0335,-0.0362,-0.0418,-0.0374,-0.0341,-0.0374,-0.0374,-0.0481,-0.0493,-0.051,-0.0602,-0.0609,-0.0575,-0.058,-0.0582,-0.0584,0,0,0,0,0,0,0,-0.023,-0.0182,-0.0244,-0.0277,-0.0281,-0.0321,-0.0322,-0.0324,-0.0374,-0.0374,-0.0374,-0.0374,-0.0541,-0.0548,-0.0554,-0.0594,0,0,-0.0575,-0.0578,0,0,0,0,0,0,0,0,-0.0181,-0.0181,-0.0244,-0.0245,-0.0245,-0.0321,-0.0322,-0.0324,-0.0374,-0.0374,-0.0374,-0.0374,-0.0543,-0.0548,-0.0554,0,0,0,0,0,0,0,0,0,0,0,0,0,0,0,-0.0244,-0.0244,0,-0.0321,-0.0322,-0.0323,-0.0374,-0.0374,-0.0374,-0.0374,-0.0544,-0.0549,-0.0553,0,0,0,0,0,0,0,0,0,0,0,0,0,0,0,0,0,0,0,0,0,0,0,0,0,0,0,0,0,0,0,0,0,0,0,0,0,0,0,0,0,0,0,0,0,0,0,0,0,0,0,0,0,0,0,0,0,0,0,0,0,0,0,0,0,0,0,0,0]}]],[[{"header":{"parameterUnit":"kt","parameterCategory":2,"dx":1,"dy":1,"la1":30.253999710083008,"la2":30.299108505249023,"lo1":-89.0895004272461,"lo2":-89.04439544677734,"nx":28,"ny":28,"refTime":"2022-10-03T21:00:00:Z","depth":"4","parameterNumber":2,"parameterNumberName":"U-component_of_CURRENTS"},"data":[0.1552,0.1592,0.1578,0.1489,0.1495,0.1546,0.1637,0.1799,0.1805,0.2045,0.2172,0.2362,0.2602,0.2678,0.283,0.2882,0.2896,0.3322,0.3315,0.346,0.3483,0.3503,0.3334,0,0,0,0,0,0.1603,0.1606,0.163,0.1671,0.1726,0.179,0.1923,0.2054,0.2272,0.2232,0.2389,0.2521,0.2705,0.2879,0.288,0.3148,0.3333,0.3136,0.3241,0.3474,0.3499,0.3326,0,0,0,0,0,0,0.171,0.1703,0.1822,0.1866,0.1945,0.1954,0.2065,0.2174,0.2264,0.2552,0.2552,0.2849,0.3074,0.318,0.3265,0.3324,0.3308,0.3212,0.3249,0.3276,0.3096,0.2968,0.2798,0,0,0,0,0,0.1823,0.1908,0.1979,0.206,0.2157,0.2219,0.2383,0.239,0.2652,0.2847,0.2919,0.3049,0.3175,0.3336,0.3435,0.3499,0.3742,0.3677,0.3691,0.3622,0.3568,0.3524,0.3523,0.3596,0.3599,0.3601,0.3602,0,0.1999,0.2027,0.2205,0.2249,0.2345,0.2492,0.2576,0.2823,0.2906,0.3157,0.3145,0.3376,0.35,0.35,0.3682,0.3793,0.3748,0.3743,0.367,0.3608,0.3559,0.3551,0.3543,0.3623,0.3621,0.3619,0.3618,0,0.209,0.2225,0.2289,0.2488,0.2553,0.2622,0.283,0.2925,0.3156,0.3246,0.3321,0.3544,0.3676,0.3808,0.3941,0.3839,0.3869,0.3817,0.3996,0.3954,0.359,0.3573,0.3656,0.3649,0.3643,0.3637,0.3633,0,0.2256,0.231,0.2505,0.2532,0.2613,0.2785,0.2915,0.305,0.3237,0.3299,0.3548,0.3595,0.3768,0.3837,0.3886,0.3831,0.3975,0.375,0.3707,0.3859,0.3843,0.3838,0.3817,0.4005,0.4004,0.4003,0.4003,0,0.2318,0.2462,0.253,0.2575,0.2721,0.2805,0.2912,0.3096,0.3167,0.3422,0.3493,0.3655,0.3722,0.38,0.3841,0.3809,0.3934,0.3888,0.37,0.3684,0.3824,0.3805,0.4001,0.4001,0.4001,0.4,0.4,0,0.2419,0.2485,0.2572,0.2697,0.2729,0.28,0.2955,0.3049,0.3219,0.3316,0.3449,0.3516,0.3647,0.3618,0.3737,0.3667,0.3694,0.371,0.3713,0.3469,0.3349,0.3541,0.3702,0.3699,0.3697,0.3694,0.3692,0,0.2431,0.2519,0.2588,0.2669,0.2711,0.2804,0.2881,0.2983,0.3103,0.3215,0.3301,0.3408,0.339,0.3455,0.3514,0.3529,0.3608,0.3522,0.3557,0.356,0.3327,0.3421,0.352,0.3657,0.3661,0.3664,0.3667,0,0.2416,0.2541,0.2555,0.2603,0.2707,0.2737,0.2834,0.2926,0.3021,0.3106,0.3219,0.3295,0.3343,0.336,0.3356,0.3427,0.3554,0.3374,0.3374,0.3421,0.3654,0.3408,0.3405,0.35,0.3504,0.3507,0.3642,0,0.2454,0.2517,0.2542,0.2616,0.2666,0.272,0.2789,0.2852,0.2927,0.2986,0.3092,0.3123,0.3186,0.3198,0.3185,0.3291,0.3251,0.3201,0.3173,0.3269,0.3311,0.3331,0.3071,0.3069,0.3067,0.3066,0,0,0.2423,0.2475,0.2517,0.2565,0.2612,0.2667,0.2718,0.2767,0.2839,0.2891,0.2909,0.2988,0.3001,0.3064,0.3108,0.3082,0.3087,0.3086,0.3211,0.3227,0.3242,0.3288,0.3309,0.3063,0.3063,0.3062,0.3062,0,0.2409,0.2466,0.2501,0.2544,0.2623,0.2645,0.2677,0.2741,0.2798,0.2861,0.2862,0.2926,0.293,0.2962,0.2971,0.305,0.3023,0.3033,0.3146,0.3195,0.3213,0.3229,0.3278,0.3298,0.3058,0.3058,0.3058,0,0.2393,0.2433,0.2459,0.2524,0.2567,0.2606,0.2633,0.2701,0.2753,0.2734,0.2812,0.2813,0.281,0.2852,0.2874,0.2861,0.2979,0.2916,0.2924,0.2956,0.3005,0.3026,0.3044,0.2807,0.2806,0.2806,0,0,0.2385,0.2425,0.2477,0.2524,0.2551,0.2605,0.2639,0.2684,0.2719,0.2746,0.2763,0.2787,0.2796,0.282,0.2813,0.2848,0.2862,0.2887,0.2899,0.2909,0.2945,0.2997,0.3017,0.2803,0.2803,0.2803,0,0,0.2375,0.2434,0.2469,0.2519,0.2566,0.26,0.264,0.2679,0.2722,0.2751,0.2742,0.2745,0.2789,0.2778,0.2748,0.2826,0.2776,0.2781,0.2841,0.2855,0.2867,0.2912,0.2717,0,0,0,0,0,0.2391,0.242,0.2451,0.2468,0.2543,0.258,0.259,0.2651,0.2692,0.272,0.2747,0.2732,0.2771,0.2743,0.2738,0.2791,0.2771,0.2777,0.2782,0.2865,0.2881,0.2894,0,0,0,0,0,0,0.2397,0.2414,0.245,0.2484,0.2503,0.2578,0.2603,0.2618,0.2691,0.2702,0.2727,0.2729,0.2712,0.2743,0.2739,0.2791,0.2718,0.2773,0.2778,0.2783,0.287,0.2883,0.2894,0,0,0,0,0,0.2402,0.2416,0.253,0.2484,0.25,0.258,0.2604,0.2618,0.2683,0.2675,0.2683,0.2739,0.271,0.271,0.2741,0.2794,0.2721,0.2719,0.2776,0.278,0.2784,0.2877,0,0,0,0,0,0,0.2406,0.2413,0.2534,0.2541,0.2505,0.2579,0.2594,0.2617,0.2653,0.2663,0.2679,0.2685,0.2708,0.2708,0.2707,0.2799,0.2723,0.2721,0.272,0.2779,0.2782,0.2785,0,0,0,0,0,0,0.2407,0.2418,0.2537,0.2561,0.257,0.2578,0.2591,0.257,0.2651,0.2652,0.2661,0.2681,0.2701,0.2706,0.2706,0.267,0.2724,0.2723,0.2722,0.2721,0.2782,0.2784,0,0,0,0,0,0,0.2412,0.2422,0.2559,0.2566,0.2575,0.2648,0.2557,0.2625,0.27,0.2647,0.2706,0.2709,0.2698,0.2699,0.2705,0.2668,0.2669,0.2724,0.2723,0.2723,0.2722,0,0,0,0,0,0,0,0.2416,0.2342,0.2503,0.2571,0.2578,0.2604,0.2605,0.2606,0.27,0.2703,0.2706,0.2708,0.2732,0.273,0.2729,0.2667,0,0,0.2724,0.2724,0,0,0,0,0,0,0,0,0.2339,0.2341,0.2503,0.2505,0.2507,0.2604,0.2605,0.2606,0.2701,0.2703,0.2705,0.2707,0.2731,0.273,0.2729,0,0,0,0,0,0,0,0,0,0,0,0,0,0,0,0.2504,0.2505,0,0.2604,0.2605,0.2606,0.2701,0.2703,0.2705,0.2706,0.2731,0.273,0.2729,0,0,0,0,0,0,0,0,0,0,0,0,0,0,0,0,0,0,0,0,0,0,0,0,0,0,0,0,0,0,0,0,0,0,0,0,0,0,0,0,0,0,0,0,0,0,0,0,0,0,0,0,0,0,0,0,0,0,0,0,0,0,0,0,0,0,0,0,0]}],[{"header":{"parameterUnit":"kt","parameterCategory":2,"dx":1,"dy":1,"la1":30.253999710083008,"la2":30.299108505249023,"lo1":-89.0895004272461,"lo2":-89.04439544677734,"nx":28,"ny":28,"refTime":"2022-10-03T21:00:00:Z","depth":"4","parameterNumber":3,"parameterNumberName":"V-component_of_CURRENTS"},"data":[-0.0174,-0.0075,-0.0009,0.0288,0.0411,0.0576,0.0643,0.0638,0.0711,0.0685,0.0547,0.0432,0.0149,0.0333,-0.012,-0.0197,-0.0273,-0.0699,-0.0703,-0.0813,-0.0811,-0.0808,-0.0639,0,0,0,0,0,-0.0248,-0.015,-0.0043,0.0095,0.0232,0.0295,0.0416,0.0412,0.0429,0.0581,0.0544,0.0473,0.0207,0.0049,-0.0126,-0.0316,-0.0565,-0.0536,-0.0622,-0.0811,-0.0809,-0.0645,0,0,0,0,0,0,-0.0295,-0.0274,-0.0172,-0.0088,0.0032,0.0205,0.0169,0.0352,0.038,0.0437,0.0477,0.0327,0.0199,-0.0101,-0.0277,-0.0472,-0.0484,-0.052,-0.0533,-0.0534,-0.0362,-0.027,-0.0369,0,0,0,0,0,-0.0295,-0.0288,-0.0263,-0.0165,-0.0096,-0.0024,0.0087,0.0112,0.0229,0.0153,0.0287,0.0169,0.0025,-0.0157,-0.0412,-0.0545,-0.0731,-0.0806,-0.0804,-0.0676,-0.0638,-0.0662,-0.0646,-0.0798,-0.0798,-0.0798,-0.0798,0,-0.0221,-0.025,-0.0223,-0.0168,-0.0146,-0.0143,-0.0071,-0.0061,0.0041,0.0066,0.015,0.0006,0.0002,-0.0254,-0.0422,-0.0663,-0.0667,-0.08,-0.0662,-0.0631,-0.0661,-0.0644,-0.0628,-0.0795,-0.0796,-0.0796,-0.0796,0,-0.0151,-0.0122,-0.0152,-0.0111,-0.0103,-0.012,-0.0059,-0.0019,-0.0034,0.0034,0.0033,-0.0001,-0.0091,-0.024,-0.0423,-0.0481,-0.0617,-0.0674,-0.0593,-0.063,-0.0633,-0.0618,-0.0792,-0.0793,-0.0793,-0.0794,-0.0794,0,-0.0012,-0.0045,0.001,-0.002,-0.0037,0.0012,-0.0009,0.0019,0.0041,0.0094,0.0049,0.0063,-0.0057,-0.0166,-0.0246,-0.0394,-0.0435,-0.046,-0.0507,-0.0408,-0.0396,-0.0463,-0.0454,-0.0512,-0.051,-0.0508,-0.0507,0,0.0049,0.0093,0.0069,0.0072,0.01,0.0099,0.0123,0.0135,0.0139,0.0114,0.0085,0.005,-0.0012,-0.0097,-0.0199,-0.0163,-0.0387,-0.0371,-0.0451,-0.0453,-0.0449,-0.0444,-0.0505,-0.0504,-0.0504,-0.0503,-0.0502,0,0.0149,0.0151,0.0155,0.0142,0.0141,0.0166,0.0139,0.0173,0.0166,0.0147,0.0132,0.01,0.0067,0.0061,-0.0076,-0.0015,-0.012,-0.0192,-0.0204,-0.0218,-0.0249,-0.0352,-0.0362,-0.036,-0.0357,-0.0355,-0.0353,0,0.0149,0.0165,0.0195,0.0201,0.018,0.0192,0.0225,0.0225,0.0205,0.0169,0.0151,0.0118,0.0142,0.0103,0.0074,-0.0016,-0.0083,0.0018,-0.0242,-0.0251,-0.0233,-0.0239,-0.0074,-0.0322,-0.0326,-0.0329,-0.0331,0,0.0125,0.0145,0.0144,0.0121,0.0148,0.0138,0.0195,0.0184,0.0162,0.0165,0.0123,0.0155,0.0103,0.0096,0.0077,0.003,-0.0046,-0.0013,-0.0019,-0.0122,-0.0238,-0.0208,-0.0224,-0.0065,-0.0067,-0.0068,-0.0309,0,0.0097,0.0097,0.0113,0.0122,0.0129,0.0132,0.0132,0.0133,0.0106,0.0084,0.0072,0.005,0.0018,0.0035,0.0027,0.0012,-0.0038,-0.0048,-0.0102,-0.0076,-0.0186,-0.0202,-0.003,-0.0032,-0.0033,-0.0034,0,0,0.0039,0.0043,0.0025,0.0046,0.0037,0.0006,0.0022,0.0028,0.0007,-0.0014,-0.0026,-0.005,-0.0059,-0.0048,-0.0021,-0.0028,-0.0096,-0.0043,-0.0073,-0.0076,-0.008,-0.0183,-0.0197,-0.0036,-0.0037,-0.0037,-0.0038,0,0.0015,-0.0005,0.0016,0.0011,-0.0004,-0.0016,-0.0013,-0.0037,-0.0049,-0.0044,-0.0071,-0.0083,-0.0084,-0.0093,-0.0095,-0.0046,-0.0127,-0.0036,-0.0008,-0.0081,-0.0083,-0.0085,-0.0186,-0.0198,-0.0041,-0.0041,-0.0041,0,-0.0036,-0.0048,-0.0044,-0.0055,-0.0069,-0.0051,-0.0103,-0.01,-0.0086,-0.0145,-0.0132,-0.015,-0.0166,-0.0145,-0.014,-0.0166,-0.0182,-0.0139,-0.0133,-0.0144,-0.0224,-0.0224,-0.0225,-0.0222,-0.0222,-0.0223,0,0,-0.0056,-0.0051,-0.0074,-0.0062,-0.0066,-0.0099,-0.0104,-0.0122,-0.0136,-0.0144,-0.0166,-0.0183,-0.0177,-0.0183,-0.0184,-0.0175,-0.0245,-0.0159,-0.015,-0.0143,-0.015,-0.0226,-0.0226,-0.0224,-0.0224,-0.0224,0,0,-0.0063,-0.0084,-0.0108,-0.0092,-0.0105,-0.0129,-0.0122,-0.0147,-0.016,-0.0166,-0.02,-0.0205,-0.0187,-0.0213,-0.0227,-0.0196,-0.0234,-0.0232,-0.0175,-0.0165,-0.0156,-0.0163,-0.0263,0,0,0,0,0,-0.0104,-0.0081,-0.0103,-0.0105,-0.0124,-0.0122,-0.0126,-0.0151,-0.0176,-0.0168,-0.019,-0.0214,-0.0221,-0.0235,-0.0239,-0.021,-0.0241,-0.0238,-0.0235,-0.0159,-0.0148,-0.0139,0,0,0,0,0,0,-0.0105,-0.0106,-0.0103,-0.0125,-0.013,-0.0123,-0.0159,-0.0166,-0.0177,-0.0181,-0.021,-0.0215,-0.0235,-0.0235,-0.0238,-0.021,-0.0262,-0.024,-0.0237,-0.0235,-0.0155,-0.0146,-0.0139,0,0,0,0,0,-0.0105,-0.0106,-0.0129,-0.0126,-0.013,-0.016,-0.0159,-0.0165,-0.0177,-0.0204,-0.021,-0.0195,-0.0234,-0.0238,-0.0237,-0.0207,-0.026,-0.0261,-0.0238,-0.0236,-0.0234,-0.0151,0,0,0,0,0,0,-0.0106,-0.0117,-0.0131,-0.0134,-0.013,-0.0161,-0.0165,-0.0165,-0.02,-0.0206,-0.0189,-0.0192,-0.0233,-0.0237,-0.024,-0.0204,-0.0258,-0.0259,-0.026,-0.0237,-0.0235,-0.0234,0,0,0,0,0,0,-0.0117,-0.0119,-0.0132,-0.0136,-0.014,-0.0161,-0.0165,-0.0174,-0.02,-0.0185,-0.0188,-0.019,-0.0226,-0.0236,-0.0238,-0.0251,-0.0257,-0.0258,-0.0259,-0.0259,-0.0235,-0.0234,0,0,0,0,0,0,-0.0119,-0.0121,-0.0136,-0.0139,-0.0142,-0.0175,-0.017,-0.0188,-0.0204,-0.0183,-0.0206,-0.0207,-0.0224,-0.0228,-0.0237,-0.0249,-0.0251,-0.0257,-0.0257,-0.0258,-0.0258,0,0,0,0,0,0,0,-0.012,-0.0096,-0.0113,-0.014,-0.0143,-0.0158,-0.0159,-0.016,-0.0204,-0.0205,-0.0206,-0.0206,-0.0251,-0.0252,-0.0253,-0.0246,0,0,-0.0257,-0.0257,0,0,0,0,0,0,0,0,-0.0096,-0.0096,-0.0113,-0.0113,-0.0114,-0.0158,-0.0159,-0.016,-0.0204,-0.0205,-0.0206,-0.0206,-0.0251,-0.0252,-0.0253,0,0,0,0,0,0,0,0,0,0,0,0,0,0,0,-0.0113,-0.0113,0,-0.0158,-0.0159,-0.016,-0.0205,-0.0205,-0.0205,-0.0206,-0.0251,-0.0252,-0.0253,0,0,0,0,0,0,0,0,0,0,0,0,0,0,0,0,0,0,0,0,0,0,0,0,0,0,0,0,0,0,0,0,0,0,0,0,0,0,0,0,0,0,0,0,0,0,0,0,0,0,0,0,0,0,0,0,0,0,0,0,0,0,0,0,0,0,0,0,0]}]]]